Regional Weather Roundup
Issued by NWS Northern Indiana

Home | Current Version | Previous Version | Text Only | Print | Product List | Glossary On
Versions: 1 2 3 4 5 6 7 8 9 10 11 12 13 14 15 16 17 18 19 20 21 22 23 24 25 26 27 28 29 30 31 32 33 34 35 36 37 38 39 40 41 42 43 44 45 46 47 48 49 50
000
ASUS43 KIWX 180610
RWRIWX

KIWX WEATHER ROUNDUP
NATIONAL WEATHER SERVICE NORTHERN INDIANA
100 AM EST THU JAN 18 2018

NOTE: "FAIR" INDICATES FEW OR NO CLOUDS BELOW 12,000 FEET WITH NO
SIGNIFICANT WEATHER AND/OR OBSTRUCTIONS TO VISIBILITY.

* THESE STATIONS ARE NOT UNDER NWS QUALITY CONTROL. THEY ALSO MAY NOT
  REPORT WEATHER SUCH AS PRECIPITATION OR FOG.

INZ001>027-180700-
NORTHERN INDIANA

CITY           SKY/WX    TMP DP  RH WIND       PRES   REMARKS
GARY*          FAIR      19   9  65 SW12G20   30.24F WCI   7
VALPARAISO     FAIR      16   9  74 SW18      30.25F WCI   0
6HR MIN TEMP:  15; 6HR MAX TEMP:  17;

MICHIGAN CITY* FAIR      18  10  73 SW14G22   30.23F WCI   4
LAPORTE*       FAIR      15   9  76 SW16      30.24F WCI  -1
6HR MIN TEMP:  13; 6HR MAX TEMP:  15;

KNOX*          FAIR      16  10  79 SW13      30.27F WCI   2
SOUTH BEND     FAIR      14   8  77 SW20      30.22F WCI  -3
6HR MIN TEMP:  13; 6HR MAX TEMP:  15;

GOSHEN         FAIR      15   8  73 SW22G32   30.23F WCI  -3
6HR MIN TEMP:  12; 6HR MAX TEMP:  15;

MONTICELLO*    FAIR      14   7  73 SW15G21   30.31F WCI  -1
6HR MIN TEMP:  11; 6HR MAX TEMP:  14;

LOGANSPORT*    FAIR      12   9  85 SW14      30.32F WCI  -3
ROCHESTER*     FAIR      18  12  79 SW15G21   30.28F WCI   3
WARSAW*        FAIR      16   9  73 SW16G25   30.25F WCI   0
AUBURN*        FAIR      14 -18  22 SW9G20    30.24F WCI   2
FORT WAYNE     FAIR      14   8  77 SW18      30.28F WCI  -3
6HR MIN TEMP:  13; 6HR MAX TEMP:  15;

HUNTINGTON*    FAIR      13   7  77 SW13G21   30.29F WCI  -2
6HR MIN TEMP:  11; 6HR MAX TEMP:  14;

PERU/GRISSOM   FAIR      13   9  84 W18       30.30F WCI  -5
6HR MIN TEMP:  10; 6HR MAX TEMP:  13;

MARION*        FAIR      12   7  81 SW17      30.33F WCI  -6
6HR MIN TEMP: -17; 6HR MAX TEMP:  56;


$$
INZ028>050-180700-
CENTRAL INDIANA

CITY           SKY/WX    TMP DP  RH WIND       PRES   REMARKS
LAFAYETTE      FAIR      13   8  81 SW13      30.36S WCI  -2
6HR MIN TEMP:  11; 6HR MAX TEMP:  14;

MUNCIE*        FAIR      12   5  73 SW12G20   30.33F WCI  -2
6HR MIN TEMP:  12; 6HR MAX TEMP:  17;

INDIANAPOLIS   FAIR      10   5  80 SW10      30.38F WCI  -4
6HR MIN TEMP:  10; 6HR MAX TEMP:  13;


$$
MIZ043>046-050>051-056>058-064>065-071>073-077>080-180700-
SOUTHWEST LOWER MICHIGAN

CITY           SKY/WX    TMP DP  RH WIND       PRES   REMARKS
BATTLE CREEK   FAIR      15   8  73 SW18      30.14F WCI  -2
6HR MIN TEMP:  15; 6HR MAX TEMP:  20;

BENTON HARBOR  FAIR      21  14  74 SW21G30   30.20F WCI   5
6HR MIN TEMP:  20; 6HR MAX TEMP:  21;

COLDWATER*     FAIR      14   8  78 SW17G23   30.17F WCI  -3
6HR MIN TEMP:  14; 6HR MAX TEMP:  17;

HILLSDALE*     FAIR      16   7  67 W14G23    30.13F WCI   1
HOLLAND        FAIR      25  17  72 SW22G32   30.12F WCI  10
6HR MIN TEMP:  24; 6HR MAX TEMP:  26;

GRAND RAPIDS   FAIR      23  16  74 SW25G35   30.09F WCI   7
6HR MIN TEMP:  22; 6HR MAX TEMP:  24;

KALAMAZOO      FAIR      16   8  71 SW16      30.16F WCI   1
6HR MIN TEMP:  16; 6HR MAX TEMP:  20;

STURGIS*       FAIR      15   9  76 SW12      30.19S WCI   2
6HR MIN TEMP:  14; 6HR MAX TEMP:  17;

THREE RIVERS*  FAIR      17  10  71 W15G21    30.19F WCI   3
6HR MIN TEMP:  17; 6HR MAX TEMP:  18;


$$
OHZ001>008-015>018-024>025-180700-
NORTHWEST OHIO

CITY           SKY/WX    TMP DP  RH WIND       PRES   REMARKS
DEFIANCE       FAIR      13   5  70 SW17G24   30.25F WCI  -4
6HR MIN TEMP:  12; 6HR MAX TEMP:  15;

FINDLAY        FAIR      15   6  67 SW16G25   30.25F WCI  -1
6HR MIN TEMP:  15; 6HR MAX TEMP:  16;

TOLEDO EXPRESS FAIR      15   8  73 SW23G30   30.20F WCI  -3
6HR MIN TEMP:  14; 6HR MAX TEMP:  16;

TOLEDO METCALF FAIR      16   8  71 SW21G28   30.22F WCI  -1
6HR MIN TEMP:  14; 6HR MAX TEMP:  16;

LIMA           FAIR      13   6  74 SW20      30.28F WCI  -5
6HR MIN TEMP:  13; 6HR MAX TEMP:  15;


$$
AND FOR LAKE MICHIGAN COASTAL AND OPEN LAKE BUOY OBSERVATIONS

STATION/POSITION TEMP    WIND        PRES    VSBY  WAVE
                 AIR SEA DIR/SP/G                  HT/PER
                 (F)     (DEG/KT/KT) (MB)    (MI)  (FT/S)
CALUMET HARBOR           210/ 11/ 17 1022.6F
MICHIGAN CITY     18     210/ 20/ 22   N/A
BURNS HARBOR      17     210/ 15/ 20 1024.4F
SAINT JOSEPH      23     230/ 20/ 28 1023.4

$$
&&




USA.gov is the U.S. government's official web portal to all federal, state and local government web resources and services.